Back to catalog

STARLINK-11740

AliveCommunicationsVLEO
NORAD 64382·PAYLOAD·🇺🇸 United States

Launched Jun 13, 2025 from Cape Canaveral Space Force Station

Loading…

Next Passes (next 24 hours)

TLE

FreshSource: CelesTrak SupGP

Epoch: Sep 14, 2026, 21:47 UTC

1 64382C 25127N   26257.90812500  .00074731  00000+0  58006-3 0  2577
2 64382  43.0007  23.6714 0001699 270.7041 140.3362 15.70816515    17

Track STARLINK-11740 in real time with AllMySat

Download on the App Store